User: anonymous   Login
Location: Ocean City
(38.3360°N, 75.0850°W)
Time: 04:50:01
(UTC-04:00)
Language:

STARS - Orbit

View from above orbital plane
View from above orbital plane
View from above satellite
View from above satellite

Ground track
Ground track

The orbit data is extracted from the following two-line orbital elements,

1 33498U 09002G   19144.18376772  .00000140  00000-0  26519-4 0  9990
2 33498  98.3102 352.5282 0009677 247.9869 112.0314 14.78978896556233
Epoch (UTC): 24 May 2019 04:24:37
Eccentricity: 0.0009677
inclination: 98.3102°
perigee height: 626 km
apogee height: 639 km
right ascension of ascending node: 352.5282°
argument of perigee: 247.9869°
revolutions per day: 14.78978896
mean anomaly at epoch: 112.0314°
orbit number at epoch: 55623

The dashed part of the orbit path shows where the satellite is in the earth's shadow,  

DLR